レナード彗星

C/2020 K3 ( Leonard )

English version
Home page
Updated on May 26, 2021

---------------------------------------------------------------------

・ プロフィール

発見日 2020年5月22日
発見光度 18.0等
発見者 Gregory J. Leonard (Catalina Sky Survey)

・ 写真集

・ 軌道要素

Epoch 2020 May 31.0 TT = JDT 2459000.5
T 2020 May 30.12180 TT                                  Rudenko
q   1.5934455            (2000.0)            P               Q
z  +0.0047506      Peri.   62.69749     +0.66557037     -0.65074543
 +/-0.0000061      Node    27.92761     -0.52922167     -0.75676126
e   0.9924302      Incl.  128.71544     +0.52625137     +0.06199017
From 234 observations 2019 Oct. 25-2020 Sept. 12, mean residual 1".8.

・ 光度変化

        m1 = 15.5 + 5 logΔ + 10.0 log r          [  ,-8]  (              〜2020年 5月22日)
        m1 = 10.0 + 5 logΔ + 25   log r(t + 40)  [-8,  ]  (2020年 5月22日〜              )

---------------------------------------------------------------------

軌道要素はM.P.E.C. 2020-S188に掲載されたものです。
光度グラフはComet for Windowsで作成したものです。

---------------------------------------------------------------------

Copyright(C) Seiichi Yoshida (comet@aerith.net). All rights reserved.